AAL1417 KEYW-KPHL

Flight info

Callsign AAL1417
Flight time N/A
Altitude 37000
Route BUFTT1 BUFTT TOWIE ZFP ALYRA PELCN Y309 FLRDA IDOLS SKARP Q101 KALDA ZJAAY JIIMS4
Aircraft A319/M-SDE3FGHIRWY/LB1

Departure

Time 2026-04-29 21:52
Airport Key West International Airport (KEYW)

Arrival

Time N/A
Airport Philadelphia International Airport (KPHL)
Time Latitude Longitude Altitude Speed Heading
2026-04-29 21:34 24.55439 -81.75460 12 ft 0 kts 180°
2026-04-29 21:42 24.55467 -81.75457 12 ft 3 kts 202°
2026-04-29 21:43 24.55485 -81.75444 12 ft 3 kts 242°
2026-04-29 21:43 24.55490 -81.75428 12 ft 0 kts 269°
2026-04-29 21:46 24.55491 -81.75437 12 ft 3 kts 279°
2026-04-29 21:46 24.55512 -81.75459 12 ft 6 kts 344°
2026-04-29 21:46 24.55531 -81.75492 12 ft 6 kts 271°
2026-04-29 21:46 24.55531 -81.75535 12 ft 6 kts 269°
2026-04-29 21:47 24.55530 -81.75577 12 ft 6 kts 269°
2026-04-29 21:47 24.55530 -81.75625 14 ft 8 kts 270°
2026-04-29 21:47 24.55529 -81.75687 12 ft 8 kts 269°
2026-04-29 21:47 24.55529 -81.75751 12 ft 8 kts 269°
2026-04-29 21:48 24.55528 -81.75817 14 ft 9 kts 269°
2026-04-29 21:48 24.55527 -81.75884 13 ft 9 kts 269°
2026-04-29 21:48 24.55527 -81.75955 12 ft 9 kts 269°
2026-04-29 21:48 24.55526 -81.76027 12 ft 10 kts 269°
2026-04-29 21:49 24.55526 -81.76103 12 ft 10 kts 269°
2026-04-29 21:49 24.55525 -81.76180 12 ft 10 kts 269°
2026-04-29 21:49 24.55524 -81.76258 12 ft 10 kts 269°
2026-04-29 21:49 24.55523 -81.76337 12 ft 10 kts 269°
2026-04-29 21:50 24.55523 -81.76418 12 ft 11 kts 269°
2026-04-29 21:50 24.55522 -81.76499 11 ft 11 kts 269°
2026-04-29 21:50 24.55521 -81.76582 11 ft 11 kts 269°
2026-04-29 21:50 24.55556 -81.76648 13 ft 11 kts 338°
2026-04-29 21:51 24.55609 -81.76705 11 ft 11 kts 290°
2026-04-29 21:51 24.55608 -81.76740 12 ft 2 kts 186°
2026-04-29 21:51 24.55606 -81.76727 11 ft 0 kts 93°
2026-04-29 21:52 24.55607 -81.76420 10 ft 82 kts 89°
2026-04-29 21:52 24.55617 -81.75516 25 ft 150 kts 89°
2026-04-29 21:52 24.55642 -81.74341 640 ft 153 kts 88°
2026-04-29 21:52 24.56045 -81.73270 1304 ft 159 kts 49°
2026-04-29 21:53 24.57022 -81.72626 1666 ft 177 kts 13°
2026-04-29 21:53 24.58330 -81.72537 1945 ft 199 kts
2026-04-29 21:53 24.59794 -81.72481 2195 ft 222 kts
2026-04-29 21:53 24.61433 -81.72401 2483 ft 249 kts
2026-04-29 21:54 24.63234 -81.72309 3035 ft 265 kts
2026-04-29 21:54 24.65094 -81.72216 3879 ft 269 kts
2026-04-29 21:54 24.66975 -81.72119 4741 ft 272 kts
2026-04-29 21:54 24.68878 -81.72019 5572 ft 276 kts
2026-04-29 21:55 24.70789 -81.71759 6388 ft 279 kts 15°
2026-04-29 21:55 24.72594 -81.70939 7200 ft 282 kts 31°
2026-04-29 21:55 24.74129 -81.69589 7971 ft 285 kts 46°
2026-04-29 21:55 24.75490 -81.67982 8752 ft 288 kts 47°
2026-04-29 21:56 24.76867 -81.66362 9489 ft 291 kts 47°
2026-04-29 21:56 24.78261 -81.64732 10244 ft 293 kts 47°
2026-04-29 21:56 24.79685 -81.63072 10710 ft 308 kts 46°
2026-04-29 21:56 24.81209 -81.61297 10875 ft 330 kts 46°
2026-04-29 21:57 24.82792 -81.59448 11305 ft 341 kts 46°
2026-04-29 21:57 24.84448 -81.57550 11962 ft 344 kts 44°
2026-04-29 21:57 24.86148 -81.55691 12691 ft 344 kts 43°
2026-04-29 21:57 24.87879 -81.53849 13317 ft 348 kts 42°
2026-04-29 21:58 24.89635 -81.51992 13916 ft 352 kts 42°
2026-04-29 21:58 24.91407 -81.50114 14521 ft 355 kts 42°
2026-04-29 21:58 24.93189 -81.48215 15124 ft 358 kts 42°
2026-04-29 21:58 24.94985 -81.46290 15694 ft 362 kts 42°
2026-04-29 21:59 24.96797 -81.44336 16248 ft 366 kts 43°
2026-04-29 21:59 24.98621 -81.42364 16804 ft 369 kts 42°
2026-04-29 21:59 25.00463 -81.40371 17358 ft 373 kts 42°
2026-04-29 21:59 25.02319 -81.38360 17901 ft 376 kts 42°
2026-04-29 22:00 25.04192 -81.36330 18447 ft 380 kts 42°
2026-04-29 22:00 25.06089 -81.34281 18986 ft 383 kts 42°
2026-04-29 22:00 25.08003 -81.32219 19522 ft 386 kts 41°
2026-04-29 22:00 25.09933 -81.30139 20017 ft 390 kts 41°
2026-04-29 22:01 25.11880 -81.28035 20518 ft 393 kts 41°
2026-04-29 22:01 25.13840 -81.25907 21008 ft 397 kts 41°
2026-04-29 22:01 25.15812 -81.23761 21482 ft 400 kts 41°
2026-04-29 22:01 25.17802 -81.21598 21946 ft 403 kts 41°
2026-04-29 22:02 25.19812 -81.19416 22399 ft 407 kts 41°
2026-04-29 22:02 25.21840 -81.17217 22833 ft 410 kts 41°
2026-04-29 22:02 25.23882 -81.15005 23246 ft 412 kts 41°
2026-04-29 22:02 25.25938 -81.12773 23645 ft 416 kts 41°
2026-04-29 22:03 25.27979 -81.10553 24030 ft 419 kts 40°
2026-04-29 22:03 25.30061 -81.08288 24408 ft 421 kts 41°
2026-04-29 22:03 25.32154 -81.06009 24779 ft 424 kts 41°
2026-04-29 22:03 25.34263 -81.03714 25142 ft 427 kts 41°
2026-04-29 22:04 25.36382 -81.01406 25498 ft 430 kts 42°
2026-04-29 22:04 25.38309 -80.98847 25836 ft 437 kts 52°
2026-04-29 22:04 25.39885 -80.95950 26167 ft 442 kts 57°
2026-04-29 22:04 25.41415 -80.93000 26498 ft 444 kts 57°
2026-04-29 22:05 25.42966 -80.90029 26825 ft 447 kts 57°
2026-04-29 22:05 25.44525 -80.87054 27148 ft 449 kts 57°
2026-04-29 22:05 25.47686 -80.81046 27774 ft 453 kts 57°
2026-04-29 22:06 25.49275 -80.78022 28086 ft 456 kts 57°
2026-04-29 22:06 25.50869 -80.74980 28387 ft 458 kts 57°
2026-04-29 22:06 25.52469 -80.71917 28676 ft 460 kts 57°
2026-04-29 22:06 25.54072 -80.68840 28954 ft 463 kts 57°
2026-04-29 22:07 25.55679 -80.65745 29235 ft 465 kts 57°
2026-04-29 22:07 25.57298 -80.62632 29513 ft 467 kts 58°
2026-04-29 22:07 25.58925 -80.59510 29780 ft 469 kts 58°
2026-04-29 22:07 25.60557 -80.56381 30029 ft 471 kts 58°
2026-04-29 22:08 25.62197 -80.53235 30278 ft 472 kts 58°
2026-04-29 22:08 25.63844 -80.50071 30518 ft 475 kts 58°
2026-04-29 22:08 25.65499 -80.46891 30777 ft 477 kts 58°
2026-04-29 22:08 25.67157 -80.43698 31070 ft 477 kts 58°
2026-04-29 22:09 25.68811 -80.40507 31399 ft 477 kts 58°
2026-04-29 22:09 25.70460 -80.37321 31735 ft 476 kts 58°
2026-04-29 22:09 25.72109 -80.34135 32063 ft 476 kts 58°
2026-04-29 22:09 25.73756 -80.30957 32385 ft 476 kts 58°
2026-04-29 22:10 25.75380 -80.27816 32705 ft 475 kts 58°
2026-04-29 22:10 25.77024 -80.24635 33053 ft 475 kts 58°
2026-04-29 22:10 25.78668 -80.21455 33386 ft 473 kts 58°
2026-04-29 22:10 25.80305 -80.18287 33699 ft 473 kts 58°
2026-04-29 22:11 25.81939 -80.15127 34012 ft 472 kts 58°
2026-04-29 22:11 25.83567 -80.11969 34325 ft 471 kts 58°
2026-04-29 22:11 25.85195 -80.08814 34618 ft 471 kts 58°
2026-04-29 22:11 25.86820 -80.05661 34892 ft 471 kts 58°
2026-04-29 22:12 25.88444 -80.02509 35160 ft 470 kts 58°
2026-04-29 22:12 25.90066 -79.99356 35414 ft 470 kts 58°
2026-04-29 22:12 25.91687 -79.96199 35659 ft 470 kts 58°
2026-04-29 22:12 25.93300 -79.93049 35905 ft 469 kts 58°
2026-04-29 22:13 25.94915 -79.89895 36139 ft 469 kts 58°
2026-04-29 22:13 25.96527 -79.86745 36363 ft 469 kts 58°
2026-04-29 22:13 25.98143 -79.83589 36569 ft 469 kts 58°
2026-04-29 22:13 25.99756 -79.80440 36768 ft 469 kts 57°
2026-04-29 22:14 26.01364 -79.77297 36960 ft 467 kts 57°
2026-04-29 22:14 26.04557 -79.71051 37007 ft 462 kts 57°
2026-04-29 22:15 26.07720 -79.64855 37008 ft 460 kts 57°
2026-04-29 22:15 26.10848 -79.58717 37008 ft 459 kts 57°
2026-04-29 22:16 26.13998 -79.52533 37008 ft 460 kts 57°
2026-04-29 22:16 26.17146 -79.46348 37009 ft 459 kts 57°
2026-04-29 22:17 26.20289 -79.40153 37014 ft 460 kts 58°
2026-04-29 22:17 26.23430 -79.33949 37018 ft 460 kts 58°
2026-04-29 22:18 26.26575 -79.27751 37026 ft 460 kts 57°
2026-04-29 22:18 26.29712 -79.21537 37034 ft 460 kts 58°
2026-04-29 22:19 26.32841 -79.15319 37034 ft 460 kts 58°
2026-04-29 22:19 26.35973 -79.09105 37038 ft 460 kts 57°
2026-04-29 22:20 26.39114 -79.02887 37033 ft 460 kts 57°
2026-04-29 22:20 26.42246 -78.96665 37035 ft 459 kts 58°
2026-04-29 22:21 26.45366 -78.90450 37038 ft 458 kts 58°
2026-04-29 22:21 26.48539 -78.84292 37035 ft 455 kts 51°
2026-04-29 22:21 26.50566 -78.81611 37037 ft 450 kts 40°
2026-04-29 22:22 26.52969 -78.79421 37030 ft 445 kts 30°
2026-04-29 22:22 26.55656 -78.77761 37027 ft 439 kts 19°
2026-04-29 22:22 26.58492 -78.76683 37024 ft 435 kts
2026-04-29 22:23 26.64455 -78.75718 37019 ft 433 kts
2026-04-29 22:23 26.70467 -78.74867 37018 ft 433 kts
2026-04-29 22:24 26.76408 -78.74017 37019 ft 433 kts
2026-04-29 22:24 26.82396 -78.73161 37017 ft 434 kts
2026-04-29 22:25 26.88395 -78.72309 37018 ft 435 kts
2026-04-29 22:25 26.94399 -78.71452 37021 ft 435 kts
2026-04-29 22:26 27.00404 -78.70598 37020 ft 435 kts
2026-04-29 22:26 27.06412 -78.69736 37021 ft 436 kts
2026-04-29 22:27 27.12430 -78.68877 37023 ft 436 kts
2026-04-29 22:27 27.18420 -78.68025 37023 ft 436 kts
2026-04-29 22:28 27.24443 -78.67153 37020 ft 437 kts
2026-04-29 22:28 27.30480 -78.66281 37022 ft 437 kts
2026-04-29 22:29 27.35492 -78.65560 37021 ft 437 kts
2026-04-29 22:29 27.42545 -78.64549 37018 ft 437 kts
2026-04-29 22:30 27.48582 -78.63681 37018 ft 438 kts
2026-04-29 22:30 27.54625 -78.62811 37019 ft 438 kts
2026-04-29 22:31 27.60673 -78.61933 37017 ft 438 kts
2026-04-29 22:31 27.66724 -78.61051 37019 ft 438 kts
2026-04-29 22:32 27.72778 -78.60179 37020 ft 438 kts
2026-04-29 22:32 27.78787 -78.59316 37018 ft 438 kts
2026-04-29 22:33 27.84838 -78.58436 37015 ft 439 kts
2026-04-29 22:33 27.90888 -78.57551 37009 ft 438 kts
2026-04-29 22:34 27.96930 -78.56663 37005 ft 438 kts
2026-04-29 22:34 28.02983 -78.55778 37000 ft 438 kts
2026-04-29 22:35 28.09033 -78.54907 36996 ft 438 kts
2026-04-29 22:35 28.15083 -78.54026 36993 ft 439 kts
2026-04-29 22:36 28.21149 -78.53135 36991 ft 439 kts
2026-04-29 22:36 28.27220 -78.52252 36988 ft 440 kts
2026-04-29 22:37 28.33296 -78.51364 36988 ft 440 kts
2026-04-29 22:37 28.39324 -78.50476 36983 ft 440 kts
2026-04-29 22:38 28.45403 -78.49584 36983 ft 440 kts
2026-04-29 22:38 28.51482 -78.48685 36981 ft 440 kts
2026-04-29 22:39 28.57568 -78.47800 36982 ft 440 kts
2026-04-29 22:39 28.63648 -78.46909 36979 ft 440 kts
2026-04-29 22:40 28.68695 -78.46163 36965 ft 441 kts
2026-04-29 22:40 28.74782 -78.45253 36958 ft 441 kts
2026-04-29 22:41 28.80867 -78.44347 36950 ft 442 kts
2026-04-29 22:41 28.86963 -78.43454 36947 ft 442 kts
2026-04-29 22:42 28.93063 -78.42556 36947 ft 442 kts
2026-04-29 22:42 28.99163 -78.41656 36942 ft 442 kts
2026-04-29 22:43 29.05264 -78.40752 36942 ft 442 kts
2026-04-29 22:43 29.11377 -78.39839 36941 ft 443 kts
2026-04-29 22:44 29.17487 -78.38925 36937 ft 443 kts
2026-04-29 22:44 29.23606 -78.38015 36938 ft 444 kts
2026-04-29 22:45 29.29729 -78.37104 36941 ft 444 kts
2026-04-29 22:45 29.36855 -78.36034 36942 ft 445 kts
2026-04-29 22:46 29.41957 -78.35265 36942 ft 445 kts
2026-04-29 22:46 29.48101 -78.34405 36937 ft 443 kts 358°
2026-04-29 22:47 29.54212 -78.34690 36937 ft 439 kts 352°
2026-04-29 22:47 29.60310 -78.35136 36938 ft 439 kts 352°
2026-04-29 22:48 29.66415 -78.35580 36942 ft 440 kts 352°
2026-04-29 22:48 29.72529 -78.36020 36947 ft 440 kts 352°
2026-04-29 22:49 29.78638 -78.36467 36942 ft 439 kts 351°
2026-04-29 22:49 29.84736 -78.36927 36943 ft 439 kts 351°
2026-04-29 22:50 29.90798 -78.37398 36942 ft 440 kts 351°
2026-04-29 22:50 29.96912 -78.37852 36946 ft 440 kts 352°
2026-04-29 22:51 30.03025 -78.38299 36947 ft 440 kts 351°
2026-04-29 22:51 30.12179 -78.38976 36942 ft 440 kts 353°
2026-04-29 22:52 30.18340 -78.38369 36940 ft 447 kts
2026-04-29 22:52 30.24507 -78.37443 36940 ft 447 kts
2026-04-29 22:53 30.30678 -78.36516 36942 ft 447 kts
2026-04-29 22:53 30.36858 -78.35600 36944 ft 448 kts
2026-04-29 22:54 30.43033 -78.34649 36944 ft 449 kts
2026-04-29 22:54 30.49194 -78.33322 36946 ft 451 kts
2026-04-29 22:55 30.55325 -78.31764 36951 ft 451 kts
2026-04-29 22:55 30.61413 -78.30265 36954 ft 450 kts
2026-04-29 22:56 30.67544 -78.28832 36954 ft 449 kts
2026-04-29 22:56 30.73676 -78.27427 36949 ft 449 kts
2026-04-29 22:57 30.79804 -78.25993 36947 ft 449 kts
2026-04-29 22:57 30.85930 -78.24541 36946 ft 449 kts
2026-04-29 22:58 30.92057 -78.23100 36943 ft 449 kts
2026-04-29 22:58 30.98190 -78.21692 36940 ft 449 kts
2026-04-29 22:59 31.04324 -78.20336 36935 ft 448 kts
2026-04-29 22:59 31.10453 -78.18996 36927 ft 448 kts
2026-04-29 23:00 31.16589 -78.17636 36929 ft 449 kts
2026-04-29 23:00 31.22720 -78.16264 36915 ft 449 kts
2026-04-29 23:01 31.28853 -78.14890 36917 ft 448 kts
2026-04-29 23:01 31.34980 -78.13525 36919 ft 448 kts
2026-04-29 23:02 31.41102 -78.12160 36921 ft 448 kts
2026-04-29 23:02 31.47223 -78.10747 36921 ft 449 kts
2026-04-29 23:03 31.53332 -78.09254 36913 ft 448 kts
2026-04-29 23:03 31.59436 -78.07752 36916 ft 448 kts
2026-04-29 23:04 31.65555 -78.06265 36900 ft 449 kts
2026-04-29 23:04 31.71681 -78.04795 36900 ft 449 kts
2026-04-29 23:05 31.77801 -78.03309 36907 ft 449 kts
2026-04-29 23:05 31.83924 -78.01821 36897 ft 449 kts
2026-04-29 23:06 31.90036 -78.00330 36897 ft 449 kts
2026-04-29 23:06 31.96150 -77.98834 36900 ft 449 kts
2026-04-29 23:07 32.02268 -77.97343 36902 ft 449 kts
2026-04-29 23:07 32.08340 -77.95864 36900 ft 449 kts
2026-04-29 23:08 32.14453 -77.94366 36894 ft 449 kts
2026-04-29 23:08 32.20588 -77.92868 36891 ft 450 kts
2026-04-29 23:09 32.26724 -77.91365 36892 ft 450 kts
2026-04-29 23:09 32.32851 -77.89858 36891 ft 449 kts
2026-04-29 23:10 32.38977 -77.88342 36890 ft 449 kts
2026-04-29 23:10 32.45101 -77.86832 36890 ft 450 kts